Time,TemperatureF,DewpointF,PressureIn,WindDirection,WindDirectionDegrees,WindSpeedMPH,WindSpeedGustMPH,Humidity,HourlyPrecipIn,Conditions,Clouds,dailyrainin,SoftwareType,DateUTC
2013-03-15 00:00:00,21.9,9.4,29.82,NW,310,7.7,14.0,58,0.00,,,0.01,WUHU216DAVISVP2,2013-03-15 04:00:00,
2013-03-15 00:05:00,21.9,9.0,29.82,NW,306,8.6,16.0,57,0.00,,,0.00,WUHU216DAVISVP2,2013-03-15 04:05:00,
2013-03-15 00:10:00,21.8,9.3,29.82,NNW,338,9.0,17.0,58,0.00,,,0.00,WUHU216DAVISVP2,2013-03-15 04:10:00,
2013-03-15 00:15:00,21.8,9.3,29.83,NW,312,7.7,17.0,58,0.00,,,0.00,WUHU216DAVISVP2,2013-03-15 04:15:00,
2013-03-15 00:20:00,21.8,9.3,29.82,WNW,298,9.4,17.0,58,0.00,,,0.00,WUHU216DAVISVP2,2013-03-15 04:20:00,
2013-03-15 00:25:00,21.7,9.6,29.83,NW,311,4.7,17.0,59,0.00,,,0.00,WUHU216DAVISVP2,2013-03-15 04:25:00,
2013-03-15 00:30:00,21.7,9.2,29.83,NW,306,8.0,17.0,58,0.00,,,0.00,WUHU216DAVISVP2,2013-03-15 04:30:00,
2013-03-15 00:35:00,21.7,9.6,29.83,WNW,282,8.0,17.0,59,0.00,,,0.00,WUHU216DAVISVP2,2013-03-15 04:35:00,
2013-03-15 00:40:00,21.6,9.5,29.83,NW,304,6.9,14.0,59,0.00,,,0.00,WUHU216DAVISVP2,2013-03-15 04:40:00,
2013-03-15 00:45:00,21.5,9.4,29.82,NW,310,5.5,17.0,59,0.00,,,0.00,WUHU216DAVISVP2,2013-03-15 04:45:00,
2013-03-15 00:50:00,21.4,9.7,29.82,NW,304,7.1,17.0,60,0.00,,,0.00,WUHU216DAVISVP2,2013-03-15 04:50:00,
2013-03-15 00:55:00,21.4,9.7,29.83,WNW,301,7.3,17.0,60,0.00,,,0.00,WUHU216DAVISVP2,2013-03-15 04:55:00,
2013-03-15 01:00:00,21.3,9.6,29.83,NNW,345,7.0,17.0,60,0.00,,,0.00,WUHU216DAVISVP2,2013-03-15 05:00:00,
2013-03-15 01:05:00,21.3,9.6,29.83,WNW,297,7.3,16.0,60,0.00,,,0.00,WUHU216DAVISVP2,2013-03-15 05:05:00,
2013-03-15 01:10:00,21.3,9.6,29.83,NNW,336,6.0,16.0,60,0.00,,,0.00,WUHU216DAVISVP2,2013-03-15 05:10:00,
2013-03-15 01:15:00,21.3,9.6,29.83,WNW,299,7.0,16.0,60,0.00,,,0.00,WUHU216DAVISVP2,2013-03-15 05:15:00,
2013-03-15 01:20:00,21.2,9.5,29.83,WNW,300,5.0,16.0,60,0.00,,,0.00,WUHU216DAVISVP2,2013-03-15 05:20:00,
2013-03-15 01:25:00,21.3,9.6,29.84,NW,312,7.1,16.0,60,0.00,,,0.00,WUHU216DAVISVP2,2013-03-15 05:25:00,
2013-03-15 01:30:00,21.3,9.6,29.84,NW,314,6.5,16.0,60,0.00,,,0.00,WUHU216DAVISVP2,2013-03-15 05:30:00,
2013-03-15 01:35:00,21.3,9.6,29.83,NNW,327,7.7,19.0,60,0.00,,,0.00,WUHU216DAVISVP2,2013-03-15 05:35:00,
2013-03-15 01:40:00,21.4,9.7,29.83,NW,321,12.0,19.0,60,0.00,,,0.00,WUHU216DAVISVP2,2013-03-15 05:40:00,
2013-03-15 01:45:00,21.4,10.1,29.84,NW,307,7.5,19.0,61,0.00,,,0.00,WUHU216DAVISVP2,2013-03-15 05:45:00,
2013-03-15 01:50:00,21.5,10.2,29.84,NW,322,4.9,17.0,61,0.00,,,0.00,WUHU216DAVISVP2,2013-03-15 05:50:00,
2013-03-15 01:55:00,21.5,10.2,29.84,NNW,334,10.0,17.0,61,0.00,,,0.00,WUHU216DAVISVP2,2013-03-15 05:55:00,
2013-03-15 02:00:00,21.4,10.1,29.84,WNW,292,8.0,17.0,61,0.00,,,0.00,WUHU216DAVISVP2,2013-03-15 06:00:00,
2013-03-15 02:05:00,21.3,10.0,29.84,NW,315,6.5,14.0,61,0.00,,,0.00,WUHU216DAVISVP2,2013-03-15 06:05:00,
2013-03-15 02:10:00,21.3,10.3,29.84,WNW,301,5.0,14.0,62,0.00,,,0.00,WUHU216DAVISVP2,2013-03-15 06:10:00,
2013-03-15 02:15:00,21.4,10.4,29.84,NW,319,5.1,13.0,62,0.00,,,0.00,WUHU216DAVISVP2,2013-03-15 06:15:00,
2013-03-15 02:20:00,21.3,10.3,29.84,NNW,328,6.0,13.0,62,0.00,,,0.00,WUHU216DAVISVP2,2013-03-15 06:20:00,
2013-03-15 02:25:00,21.3,10.3,29.84,NW,310,2.3,11.0,62,0.00,,,0.00,WUHU216DAVISVP2,2013-03-15 06:25:00,
2013-03-15 02:30:00,21.4,10.4,29.84,NW,316,4.2,13.0,62,0.00,,,0.00,WUHU216DAVISVP2,2013-03-15 06:30:00,
2013-03-15 02:35:00,21.4,10.4,29.84,NW,315,5.3,13.0,62,0.00,,,0.00,WUHU216DAVISVP2,2013-03-15 06:35:00,
2013-03-15 02:40:00,21.4,10.1,29.84,NW,312,7.3,15.0,61,0.00,,,0.00,WUHU216DAVISVP2,2013-03-15 06:40:00,
2013-03-15 02:45:00,21.3,10.0,29.84,NW,320,6.6,16.0,61,0.00,,,0.00,WUHU216DAVISVP2,2013-03-15 06:45:00,
2013-03-15 02:50:00,21.2,9.9,29.84,NW,312,5.0,16.0,61,0.00,,,0.00,WUHU216DAVISVP2,2013-03-15 06:50:00,
2013-03-15 02:55:00,21.1,9.8,29.84,NW,321,3.9,19.0,61,0.00,,,0.00,WUHU216DAVISVP2,2013-03-15 06:55:00,
2013-03-15 03:00:00,21.0,9.7,29.84,WNW,302,9.0,19.0,61,0.00,,,0.00,WUHU216DAVISVP2,2013-03-15 07:00:00,
2013-03-15 03:05:00,20.9,10.0,29.84,NW,314,5.4,19.0,62,0.00,,,0.00,WUHU216DAVISVP2,2013-03-15 07:05:00,
2013-03-15 03:10:00,20.8,9.5,29.84,WNW,301,4.8,19.0,61,0.00,,,0.00,WUHU216DAVISVP2,2013-03-15 07:10:00,
2013-03-15 03:15:00,20.7,9.4,29.84,WNW,296,9.0,13.0,61,0.00,,,0.00,WUHU216DAVISVP2,2013-03-15 07:15:00,
2013-03-15 03:20:00,20.7,8.3,29.84,NW,312,6.5,14.0,58,0.00,,,0.00,WUHU216DAVISVP2,2013-03-15 07:20:00,
2013-03-15 03:25:00,20.6,8.6,29.84,NW,308,5.1,15.0,59,0.00,,,0.00,WUHU216DAVISVP2,2013-03-15 07:25:00,
2013-03-15 03:30:00,20.5,8.5,29.84,NW,317,11.0,15.0,59,0.00,,,0.00,WUHU216DAVISVP2,2013-03-15 07:30:00,
2013-03-15 03:35:00,20.5,8.5,29.84,NW,312,5.1,21.0,59,0.00,,,0.00,WUHU216DAVISVP2,2013-03-15 07:35:00,
2013-03-15 03:40:00,20.4,8.0,29.83,NNW,327,7.0,21.0,58,0.00,,,0.00,WUHU216DAVISVP2,2013-03-15 07:40:00,
2013-03-15 03:45:00,20.4,7.6,29.83,NNW,329,9.0,21.0,57,0.00,,,0.00,WUHU216DAVISVP2,2013-03-15 07:45:00,
2013-03-15 03:50:00,20.3,7.5,29.83,NW,310,9.0,18.0,57,0.00,,,0.00,WUHU216DAVISVP2,2013-03-15 07:50:00,
2013-03-15 03:55:00,20.2,6.6,29.83,NW,304,10.0,19.0,55,0.00,,,0.00,WUHU216DAVISVP2,2013-03-15 07:55:00,
2013-03-15 04:00:00,20.1,6.9,29.83,NW,310,6.9,19.0,56,0.00,,,0.00,WUHU216DAVISVP2,2013-03-15 08:00:00,
2013-03-15 04:05:00,20.1,6.9,29.83,NW,322,5.6,19.0,56,0.00,,,0.00,WUHU216DAVISVP2,2013-03-15 08:05:00,
2013-03-15 04:10:00,20.1,6.5,29.83,West,275,6.0,19.0,55,0.00,,,0.00,WUHU216DAVISVP2,2013-03-15 08:10:00,
2013-03-15 04:15:00,19.9,6.3,29.84,NW,309,5.3,17.0,55,0.00,,,0.00,WUHU216DAVISVP2,2013-03-15 08:15:00,
2013-03-15 04:20:00,19.8,6.6,29.84,NNW,348,5.0,17.0,56,0.00,,,0.00,WUHU216DAVISVP2,2013-03-15 08:20:00,
2013-03-15 04:25:00,19.8,6.2,29.83,WNW,298,10.0,17.0,55,0.00,,,0.00,WUHU216DAVISVP2,2013-03-15 08:25:00,
2013-03-15 04:30:00,19.7,6.5,29.84,WNW,300,9.0,17.0,56,0.00,,,0.00,WUHU216DAVISVP2,2013-03-15 08:30:00,
2013-03-15 04:35:00,19.7,6.1,29.84,NW,317,6.6,17.0,55,0.00,,,0.00,WUHU216DAVISVP2,2013-03-15 08:35:00,
2013-03-15 04:40:00,19.7,6.5,29.84,WNW,289,9.0,15.0,56,0.00,,,0.00,WUHU216DAVISVP2,2013-03-15 08:40:00,
2013-03-15 04:45:00,19.6,6.0,29.84,NW,313,6.0,14.0,55,0.00,,,0.00,WUHU216DAVISVP2,2013-03-15 08:45:00,
2013-03-15 04:50:00,19.5,6.3,29.84,NW,313,3.9,15.0,56,0.00,,,0.00,WUHU216DAVISVP2,2013-03-15 08:50:00,
2013-03-15 04:55:00,19.5,5.9,29.84,WNW,302,6.6,15.0,55,0.00,,,0.00,WUHU216DAVISVP2,2013-03-15 08:55:00,
2013-03-15 05:00:00,19.3,6.6,29.84,WNW,303,4.0,15.0,57,0.00,,,0.00,WUHU216DAVISVP2,2013-03-15 09:00:00,
2013-03-15 05:05:00,19.3,6.2,29.84,NW,308,5.0,11.0,56,0.00,,,0.00,WUHU216DAVISVP2,2013-03-15 09:05:00,
2013-03-15 05:10:00,19.3,6.6,29.84,NW,324,2.9,11.0,57,0.00,,,0.00,WUHU216DAVISVP2,2013-03-15 09:10:00,
2013-03-15 05:15:00,19.3,6.6,29.84,NW,317,5.0,11.0,57,0.00,,,0.00,WUHU216DAVISVP2,2013-03-15 09:15:00,
2013-03-15 05:20:00,19.3,6.6,29.84,WNW,299,6.0,12.0,57,0.00,,,0.00,WUHU216DAVISVP2,2013-03-15 09:20:00,
2013-03-15 05:25:00,19.3,6.6,29.85,WNW,302,5.7,12.0,57,0.00,,,0.00,WUHU216DAVISVP2,2013-03-15 09:25:00,
2013-03-15 05:30:00,19.3,6.6,29.85,WNW,301,5.0,13.0,57,0.00,,,0.00,WUHU216DAVISVP2,2013-03-15 09:30:00,
2013-03-15 05:35:00,19.3,6.6,29.84,WNW,297,13.0,14.0,57,0.00,,,0.00,WUHU216DAVISVP2,2013-03-15 09:35:00,
2013-03-15 05:40:00,19.3,6.2,29.85,NW,313,6.3,15.0,56,0.00,,,0.00,WUHU216DAVISVP2,2013-03-15 09:40:00,
2013-03-15 05:45:00,19.3,6.6,29.85,NW,318,5.3,15.0,57,0.00,,,0.00,WUHU216DAVISVP2,2013-03-15 09:45:00,
2013-03-15 05:50:00,19.2,6.5,29.85,NW,311,4.0,15.0,57,0.00,,,0.00,WUHU216DAVISVP2,2013-03-15 09:50:00,
2013-03-15 05:55:00,19.1,6.4,29.85,NW,309,4.0,14.0,57,0.00,,,0.00,WUHU216DAVISVP2,2013-03-15 09:55:00,
2013-03-15 06:00:00,19.1,6.4,29.85,NW,320,3.4,12.0,57,0.00,,,0.00,WUHU216DAVISVP2,2013-03-15 10:00:00,
2013-03-15 06:05:00,19.0,6.3,29.85,NW,313,4.7,12.0,57,0.00,,,0.00,WUHU216DAVISVP2,2013-03-15 10:05:00,
2013-03-15 06:10:00,19.0,6.7,29.85,NW,304,7.0,10.0,58,0.00,,,0.00,WUHU216DAVISVP2,2013-03-15 10:10:00,
2013-03-15 06:15:00,18.9,6.5,29.85,WNW,293,11.0,11.0,58,0.00,,,0.00,WUHU216DAVISVP2,2013-03-15 10:15:00,
2013-03-15 06:20:00,18.9,6.2,29.85,WNW,294,5.4,12.0,57,0.00,,,0.00,WUHU216DAVISVP2,2013-03-15 10:20:00,
2013-03-15 06:25:00,18.8,6.4,29.85,WNW,299,3.3,12.0,58,0.00,,,0.00,WUHU216DAVISVP2,2013-03-15 10:25:00,
2013-03-15 06:30:00,18.8,6.5,29.85,WNW,286,6.0,12.0,58,0.00,,,0.00,WUHU216DAVISVP2,2013-03-15 10:30:00,
2013-03-15 06:35:00,18.7,6.4,29.85,WNW,291,6.0,12.0,58,0.00,,,0.00,WUHU216DAVISVP2,2013-03-15 10:35:00,
2013-03-15 06:40:00,18.6,6.3,29.85,NW,309,6.0,10.0,58,0.00,,,0.00,WUHU216DAVISVP2,2013-03-15 10:40:00,
2013-03-15 06:45:00,18.6,6.7,29.85,NW,304,5.0,10.0,59,0.00,,,0.00,WUHU216DAVISVP2,2013-03-15 10:45:00,
2013-03-15 06:50:00,18.6,6.7,29.85,NW,311,5.0,10.0,59,0.00,,,0.00,WUHU216DAVISVP2,2013-03-15 10:50:00,
2013-03-15 06:55:00,18.6,6.7,29.85,WNW,302,3.8,10.0,59,0.00,,,0.00,WUHU216DAVISVP2,2013-03-15 10:55:00,
2013-03-15 07:00:00,18.6,6.7,29.85,WNW,300,3.2,10.0,59,0.00,,,0.00,WUHU216DAVISVP2,2013-03-15 11:00:00,
2013-03-15 07:05:00,18.6,6.7,29.85,WNW,299,4.0,10.0,59,0.00,,,0.00,WUHU216DAVISVP2,2013-03-15 11:05:00,
2013-03-15 07:10:00,18.5,7.0,29.85,NW,304,6.0,10.0,60,0.00,,,0.00,WUHU216DAVISVP2,2013-03-15 11:10:00,
2013-03-15 07:15:00,18.6,6.7,29.85,WNW,302,4.6,10.0,59,0.00,,,0.00,WUHU216DAVISVP2,2013-03-15 11:15:00,
2013-03-15 07:20:00,18.6,7.0,29.85,West,261,7.0,12.0,60,0.00,,,0.00,WUHU216DAVISVP2,2013-03-15 11:20:00,
2013-03-15 07:25:00,18.7,7.1,29.85,NW,325,2.3,12.0,60,0.00,,,0.00,WUHU216DAVISVP2,2013-03-15 11:25:00,
2013-03-15 07:30:00,18.8,7.2,29.85,NW,308,2.8,12.0,60,0.00,,,0.00,WUHU216DAVISVP2,2013-03-15 11:30:00,
2013-03-15 07:35:00,18.8,7.2,29.85,WNW,303,4.3,12.0,60,0.00,,,0.00,WUHU216DAVISVP2,2013-03-15 11:35:00,
2013-03-15 07:40:00,19.1,7.1,29.86,WNW,297,6.0,10.0,59,0.00,,,0.00,WUHU216DAVISVP2,2013-03-15 11:40:00,
2013-03-15 07:45:00,19.2,7.6,29.86,WNW,301,4.0,10.0,60,0.00,,,0.00,WUHU216DAVISVP2,2013-03-15 11:45:00,
2013-03-15 07:50:00,19.3,7.3,29.85,WNW,294,6.0,10.0,59,0.00,,,0.00,WUHU216DAVISVP2,2013-03-15 11:50:00,
2013-03-15 07:55:00,19.5,7.9,29.86,NW,305,3.4,10.0,60,0.00,,,0.00,WUHU216DAVISVP2,2013-03-15 11:55:00,
2013-03-15 08:00:00,19.7,8.0,29.86,WNW,300,4.4,9.0,60,0.00,,,0.00,WUHU216DAVISVP2,2013-03-15 12:00:00,
2013-03-15 08:05:00,19.9,7.9,29.86,WNW,289,7.0,11.0,59,0.00,,,0.00,WUHU216DAVISVP2,2013-03-15 12:05:00,
2013-03-15 08:10:00,20.1,7.7,29.85,WNW,302,4.4,12.0,58,0.00,,,0.00,WUHU216DAVISVP2,2013-03-15 12:10:00,
2013-03-15 08:15:00,20.4,8.0,29.85,WNW,293,6.0,14.0,58,0.00,,,0.00,WUHU216DAVISVP2,2013-03-15 12:15:00,
2013-03-15 08:20:00,20.7,8.3,29.85,NW,307,3.8,14.0,58,0.00,,,0.00,WUHU216DAVISVP2,2013-03-15 12:20:00,
2013-03-15 08:25:00,20.9,8.1,29.85,WNW,298,8.1,14.0,57,0.00,,,0.00,WUHU216DAVISVP2,2013-03-15 12:25:00,
2013-03-15 08:30:00,20.9,8.4,29.85,WNW,302,6.0,14.0,58,0.00,,,0.00,WUHU216DAVISVP2,2013-03-15 12:30:00,
2013-03-15 08:35:00,21.0,8.5,29.86,NW,310,4.3,12.0,58,0.00,,,0.00,WUHU216DAVISVP2,2013-03-15 12:35:00,
2013-03-15 08:40:00,21.1,8.2,29.86,NW,319,5.0,12.0,57,0.00,,,0.00,WUHU216DAVISVP2,2013-03-15 12:40:00,
2013-03-15 08:45:00,21.1,8.2,29.85,WNW,286,9.0,12.0,57,0.00,,,0.00,WUHU216DAVISVP2,2013-03-15 12:45:00,
2013-03-15 08:50:00,21.2,8.7,29.85,WNW,298,10.0,12.0,58,0.00,,,0.00,WUHU216DAVISVP2,2013-03-15 12:50:00,
2013-03-15 08:55:00,21.3,8.4,29.86,WNW,294,5.9,14.0,57,0.00,,,0.00,WUHU216DAVISVP2,2013-03-15 12:55:00,
2013-03-15 09:00:00,21.4,8.9,29.86,WNW,296,4.3,14.0,58,0.00,,,0.00,WUHU216DAVISVP2,2013-03-15 13:00:00,
2013-03-15 09:05:00,21.8,9.3,29.85,WNW,296,8.0,14.0,58,0.00,,,0.00,WUHU216DAVISVP2,2013-03-15 13:05:00,
2013-03-15 09:10:00,21.9,8.6,29.85,NW,315,5.6,14.0,56,0.00,,,0.00,WUHU216DAVISVP2,2013-03-15 13:10:00,
2013-03-15 09:15:00,22.2,8.9,29.85,WNW,296,7.0,12.0,56,0.00,,,0.00,WUHU216DAVISVP2,2013-03-15 13:15:00,
2013-03-15 09:20:00,22.6,9.3,29.85,NW,305,7.0,13.0,56,0.00,,,0.00,WUHU216DAVISVP2,2013-03-15 13:20:00,
2013-03-15 09:25:00,23.0,10.0,29.86,NW,315,4.5,13.0,57,0.00,,,0.00,WUHU216DAVISVP2,2013-03-15 13:25:00,
2013-03-15 09:30:00,23.0,9.2,29.86,WNW,285,13.0,15.0,55,0.00,,,0.00,WUHU216DAVISVP2,2013-03-15 13:30:00,
2013-03-15 09:35:00,22.8,9.4,29.85,NW,311,4.0,15.0,56,0.00,,,0.00,WUHU216DAVISVP2,2013-03-15 13:35:00,
2013-03-15 09:40:00,23.1,9.3,29.85,NW,321,7.5,16.0,55,0.00,,,0.00,WUHU216DAVISVP2,2013-03-15 13:40:00,
2013-03-15 09:45:00,23.1,8.9,29.86,WNW,296,9.2,16.0,54,0.00,,,0.00,WUHU216DAVISVP2,2013-03-15 13:45:00,
2013-03-15 09:50:00,23.7,9.0,29.85,WNW,303,8.1,16.0,53,0.00,,,0.00,WUHU216DAVISVP2,2013-03-15 13:50:00,
2013-03-15 09:55:00,24.3,10.0,29.85,WNW,299,8.0,16.0,54,0.00,,,0.00,WUHU216DAVISVP2,2013-03-15 13:55:00,
2013-03-15 10:00:00,24.0,8.9,29.85,NW,311,6.0,16.0,52,0.00,,,0.00,WUHU216DAVISVP2,2013-03-15 14:00:00,
2013-03-15 10:05:00,24.0,8.9,29.85,NW,318,3.4,16.0,52,0.00,,,0.00,WUHU216DAVISVP2,2013-03-15 14:05:00,
2013-03-15 10:10:00,24.3,9.6,29.84,NW,306,3.7,13.0,53,0.00,,,0.00,WUHU216DAVISVP2,2013-03-15 14:10:00,
2013-03-15 10:15:00,24.9,10.1,29.84,NW,315,9.0,13.0,53,0.00,,,0.00,WUHU216DAVISVP2,2013-03-15 14:15:00,
2013-03-15 10:20:00,25.2,10.0,29.84,NW,307,6.0,10.0,52,0.00,,,0.00,WUHU216DAVISVP2,2013-03-15 14:20:00,
2013-03-15 10:25:00,25.2,9.1,29.83,NW,314,4.5,9.0,50,0.00,,,0.00,WUHU216DAVISVP2,2013-03-15 14:25:00,
2013-03-15 10:30:00,25.4,9.7,29.83,NW,321,2.2,9.0,51,0.00,,,0.00,WUHU216DAVISVP2,2013-03-15 14:30:00,
2013-03-15 10:35:00,26.0,10.3,29.83,WNW,303,5.6,12.0,51,0.00,,,0.00,WUHU216DAVISVP2,2013-03-15 14:35:00,
2013-03-15 10:40:00,25.9,9.3,29.83,West,275,6.5,12.0,49,0.00,,,0.00,WUHU216DAVISVP2,2013-03-15 14:40:00,
2013-03-15 10:45:00,25.9,9.3,29.83,WNW,291,5.9,12.0,49,0.00,,,0.00,WUHU216DAVISVP2,2013-03-15 14:45:00,
2013-03-15 10:50:00,25.8,9.2,29.82,NW,312,3.2,12.0,49,0.00,,,0.00,WUHU216DAVISVP2,2013-03-15 14:50:00,
2013-03-15 10:55:00,26.1,9.5,29.82,WNW,282,3.4,12.0,49,0.00,,,0.00,WUHU216DAVISVP2,2013-03-15 14:55:00,
2013-03-15 11:00:00,26.6,9.4,29.82,NW,306,7.0,11.0,48,0.00,,,0.00,WUHU216DAVISVP2,2013-03-15 15:00:00,
2013-03-15 11:05:00,26.7,9.1,29.82,WNW,303,6.4,12.0,47,0.00,,,0.00,WUHU216DAVISVP2,2013-03-15 15:05:00,
2013-03-15 11:10:00,26.8,9.1,29.82,WSW,255,7.0,16.0,47,0.00,,,0.00,WUHU216DAVISVP2,2013-03-15 15:10:00,
2013-03-15 11:15:00,27.1,9.4,29.81,WNW,294,5.0,16.0,47,0.00,,,0.00,WUHU216DAVISVP2,2013-03-15 15:15:00,
2013-03-15 11:20:00,27.5,9.8,29.81,WNW,288,4.0,16.0,47,0.00,,,0.00,WUHU216DAVISVP2,2013-03-15 15:20:00,
2013-03-15 11:25:00,28.0,9.2,29.81,WNW,292,3.8,14.0,45,0.00,,,0.00,WUHU216DAVISVP2,2013-03-15 15:25:00,
2013-03-15 11:30:00,28.2,10.4,29.81,WNW,295,3.5,14.0,47,0.00,,,0.00,WUHU216DAVISVP2,2013-03-15 15:30:00,
2013-03-15 11:35:00,28.9,10.1,29.80,WNW,288,2.9,8.0,45,0.00,,,0.00,WUHU216DAVISVP2,2013-03-15 15:35:00,
2013-03-15 11:40:00,29.2,9.3,29.80,WNW,288,1.5,8.0,43,0.00,,,0.00,WUHU216DAVISVP2,2013-03-15 15:40:00,
2013-03-15 11:45:00,29.7,9.8,29.80,NW,325,3.2,9.0,43,0.00,,,0.00,WUHU216DAVISVP2,2013-03-15 15:45:00,
2013-03-15 11:50:00,29.6,9.7,29.79,NW,305,6.0,10.0,43,0.00,,,0.00,WUHU216DAVISVP2,2013-03-15 15:50:00,
2013-03-15 11:55:00,29.6,8.6,29.79,WNW,287,7.0,11.0,41,0.00,,,0.00,WUHU216DAVISVP2,2013-03-15 15:55:00,
2013-03-15 12:00:00,29.3,8.3,29.79,WNW,292,4.5,11.0,41,0.00,,,0.00,WUHU216DAVISVP2,2013-03-15 16:00:00,
2013-03-15 12:05:00,29.4,8.9,29.79,WNW,299,2.9,11.0,42,0.00,,,0.00,WUHU216DAVISVP2,2013-03-15 16:05:00,
2013-03-15 12:10:00,30.5,10.5,29.78,West,265,6.0,10.0,43,0.00,,,0.00,WUHU216DAVISVP2,2013-03-15 16:10:00,
2013-03-15 12:15:00,31.4,9.1,29.78,WNW,296,6.0,12.0,39,0.00,,,0.00,WUHU216DAVISVP2,2013-03-15 16:15:00,
2013-03-15 12:20:00,31.7,9.3,29.77,WNW,302,7.0,12.0,39,0.00,,,0.00,WUHU216DAVISVP2,2013-03-15 16:20:00,
2013-03-15 12:25:00,31.2,8.9,29.77,NW,323,3.1,12.0,39,0.00,,,0.00,WUHU216DAVISVP2,2013-03-15 16:25:00,
2013-03-15 12:30:00,31.5,8.0,29.76,WNW,300,6.0,12.0,37,0.00,,,0.00,WUHU216DAVISVP2,2013-03-15 16:30:00,
2013-03-15 12:35:00,31.5,7.4,29.76,West,259,5.0,12.0,36,0.00,,,0.00,WUHU216DAVISVP2,2013-03-15 16:35:00,
2013-03-15 12:40:00,32.4,9.4,29.76,WNW,288,9.0,12.0,38,0.00,,,0.00,WUHU216DAVISVP2,2013-03-15 16:40:00,
2013-03-15 12:45:00,32.7,8.4,29.76,WNW,299,8.0,12.0,36,0.00,,,0.00,WUHU216DAVISVP2,2013-03-15 16:45:00,
2013-03-15 12:50:00,33.1,7.5,29.76,West,265,5.3,12.0,34,0.00,,,0.00,WUHU216DAVISVP2,2013-03-15 16:50:00,
2013-03-15 12:55:00,33.2,8.3,29.76,SW,232,3.6,12.0,35,0.00,,,0.00,WUHU216DAVISVP2,2013-03-15 16:55:00,
2013-03-15 13:00:00,33.6,10.5,29.75,SW,218,4.0,11.0,38,0.00,,,0.00,WUHU216DAVISVP2,2013-03-15 17:00:00,
2013-03-15 13:05:00,34.1,7.1,29.75,SSW,205,3.3,10.0,32,0.00,,,0.00,WUHU216DAVISVP2,2013-03-15 17:05:00,
2013-03-15 13:10:00,34.3,7.9,29.74,SSW,194,3.8,9.0,33,0.00,,,0.00,WUHU216DAVISVP2,2013-03-15 17:10:00,
2013-03-15 13:15:00,34.6,8.2,29.74,WNW,297,5.9,11.0,33,0.00,,,0.00,WUHU216DAVISVP2,2013-03-15 17:15:00,
2013-03-15 13:20:00,34.8,8.4,29.73,West,279,6.4,11.0,33,0.00,,,0.00,WUHU216DAVISVP2,2013-03-15 17:20:00,
2013-03-15 13:25:00,35.1,8.6,29.73,WNW,285,2.1,11.0,33,0.00,,,0.00,WUHU216DAVISVP2,2013-03-15 17:25:00,
2013-03-15 13:30:00,35.8,10.6,29.72,West,265,6.0,11.0,35,0.00,,,0.00,WUHU216DAVISVP2,2013-03-15 17:30:00,
2013-03-15 13:35:00,36.5,9.2,29.72,WSW,253,6.0,13.0,32,0.00,,,0.00,WUHU216DAVISVP2,2013-03-15 17:35:00,
2013-03-15 13:40:00,36.3,9.7,29.72,WNW,291,5.2,13.0,33,0.00,,,0.00,WUHU216DAVISVP2,2013-03-15 17:40:00,
2013-03-15 13:45:00,36.7,9.4,29.72,West,270,7.0,13.0,32,0.00,,,0.00,WUHU216DAVISVP2,2013-03-15 17:45:00,
2013-03-15 13:50:00,37.1,9.0,29.71,WSW,243,10.0,13.0,31,0.00,,,0.00,WUHU216DAVISVP2,2013-03-15 17:50:00,
2013-03-15 13:55:00,36.9,8.8,29.70,WSW,258,6.4,13.0,31,0.00,,,0.00,WUHU216DAVISVP2,2013-03-15 17:55:00,
2013-03-15 14:00:00,37.3,9.2,29.70,WSW,254,8.0,13.0,31,0.00,,,0.00,WUHU216DAVISVP2,2013-03-15 18:00:00,
2013-03-15 14:05:00,37.3,8.5,29.69,WNW,287,4.0,13.0,30,0.00,,,0.00,WUHU216DAVISVP2,2013-03-15 18:05:00,
2013-03-15 14:10:00,37.7,8.8,29.69,WSW,250,8.0,10.0,30,0.00,,,0.00,WUHU216DAVISVP2,2013-03-15 18:10:00,
2013-03-15 14:15:00,38.0,9.8,29.69,NW,304,8.0,10.0,31,0.00,,,0.00,WUHU216DAVISVP2,2013-03-15 18:15:00,
2013-03-15 14:20:00,37.7,8.8,29.68,WNW,288,12.0,13.0,30,0.00,,,0.00,WUHU216DAVISVP2,2013-03-15 18:20:00,
2013-03-15 14:25:00,37.8,11.0,29.68,WNW,292,8.0,13.0,33,0.00,,,0.00,WUHU216DAVISVP2,2013-03-15 18:25:00,
2013-03-15 14:30:00,37.4,8.5,29.68,West,263,10.0,13.0,30,0.00,,,0.00,WUHU216DAVISVP2,2013-03-15 18:30:00,
2013-03-15 14:35:00,37.6,9.4,29.67,SSW,201,6.1,13.0,31,0.00,,,0.00,WUHU216DAVISVP2,2013-03-15 18:35:00,
2013-03-15 14:40:00,38.6,11.0,29.67,WNW,289,7.0,13.0,32,0.00,,,0.00,WUHU216DAVISVP2,2013-03-15 18:40:00,
2013-03-15 14:45:00,38.7,10.4,29.67,SW,215,5.3,13.0,31,0.00,,,0.00,WUHU216DAVISVP2,2013-03-15 18:45:00,
2013-03-15 14:50:00,38.4,10.1,29.66,WSW,241,4.0,13.0,31,0.00,,,0.00,WUHU216DAVISVP2,2013-03-15 18:50:00,
2013-03-15 14:55:00,38.7,11.1,29.67,South,190,7.1,13.0,32,0.00,,,0.00,WUHU216DAVISVP2,2013-03-15 18:55:00,
2013-03-15 15:00:00,38.7,10.4,29.66,SSW,199,15.0,15.0,31,0.00,,,0.00,WUHU216DAVISVP2,2013-03-15 19:00:00,
2013-03-15 15:05:00,38.6,10.3,29.66,SW,231,3.9,15.0,31,0.00,,,0.00,WUHU216DAVISVP2,2013-03-15 19:05:00,
2013-03-15 15:10:00,39.0,11.4,29.65,WNW,294,5.0,15.0,32,0.00,,,0.00,WUHU216DAVISVP2,2013-03-15 19:10:00,
2013-03-15 15:15:00,39.2,13.6,29.66,West,264,4.4,15.0,35,0.00,,,0.00,WUHU216DAVISVP2,2013-03-15 19:15:00,
2013-03-15 15:20:00,39.9,13.5,29.65,West,271,5.0,11.0,34,0.00,,,0.00,WUHU216DAVISVP2,2013-03-15 19:20:00,
2013-03-15 15:25:00,39.5,10.4,29.65,West,276,9.0,14.0,30,0.00,,,0.00,WUHU216DAVISVP2,2013-03-15 19:25:00,
2013-03-15 15:30:00,38.7,11.1,29.65,WSW,255,3.5,14.0,32,0.00,,,0.00,WUHU216DAVISVP2,2013-03-15 19:30:00,
2013-03-15 15:35:00,39.1,12.2,29.65,SW,217,6.0,14.0,33,0.00,,,0.00,WUHU216DAVISVP2,2013-03-15 19:35:00,
2013-03-15 15:40:00,38.9,15.2,29.65,West,281,7.0,17.0,38,0.00,,,0.00,WUHU216DAVISVP2,2013-03-15 19:40:00,
2013-03-15 15:45:00,38.9,15.2,29.65,West,267,11.0,20.0,38,0.00,,,0.00,WUHU216DAVISVP2,2013-03-15 19:45:00,
2013-03-15 15:50:00,39.0,16.5,29.65,West,267,8.4,20.0,40,0.00,,,0.00,WUHU216DAVISVP2,2013-03-15 19:50:00,
2013-03-15 15:55:00,39.3,16.8,29.65,WSW,256,4.7,20.0,40,0.00,,,0.00,WUHU216DAVISVP2,2013-03-15 19:55:00,
2013-03-15 16:00:00,39.4,16.3,29.64,WSW,256,6.0,20.0,39,0.00,,,0.00,WUHU216DAVISVP2,2013-03-15 20:00:00,
2013-03-15 16:05:00,39.1,16.0,29.65,SW,218,8.0,14.0,39,0.00,,,0.00,WUHU216DAVISVP2,2013-03-15 20:05:00,
2013-03-15 16:10:00,39.1,17.2,29.65,West,274,8.6,16.0,41,0.00,,,0.00,WUHU216DAVISVP2,2013-03-15 20:10:00,
2013-03-15 16:15:00,39.3,17.9,29.64,WSW,254,7.7,17.0,42,0.00,,,0.00,WUHU216DAVISVP2,2013-03-15 20:15:00,
2013-03-15 16:20:00,39.4,18.6,29.64,West,259,8.7,19.0,43,0.00,,,0.00,WUHU216DAVISVP2,2013-03-15 20:20:00,
2013-03-15 16:25:00,39.3,19.0,29.64,SW,215,7.9,19.0,44,0.00,,,0.00,WUHU216DAVISVP2,2013-03-15 20:25:00,
2013-03-15 16:30:00,39.3,19.6,29.63,SSW,209,6.0,19.0,45,0.00,,,0.00,WUHU216DAVISVP2,2013-03-15 20:30:00,
2013-03-15 16:35:00,39.7,19.4,29.63,SW,219,8.3,19.0,44,0.00,,,0.00,WUHU216DAVISVP2,2013-03-15 20:35:00,
2013-03-15 16:40:00,39.4,19.7,29.63,SSW,198,12.0,16.0,45,0.00,,,0.00,WUHU216DAVISVP2,2013-03-15 20:40:00,
2013-03-15 16:45:00,39.2,20.0,29.63,SW,214,9.0,17.0,46,0.00,,,0.00,WUHU216DAVISVP2,2013-03-15 20:45:00,
2013-03-15 16:50:00,38.8,19.1,29.63,WSW,251,7.0,17.0,45,0.00,,,0.00,WUHU216DAVISVP2,2013-03-15 20:50:00,
2013-03-15 16:55:00,38.7,19.6,29.62,SSW,204,6.6,17.0,46,0.00,,,0.00,WUHU216DAVISVP2,2013-03-15 20:55:00,
2013-03-15 17:00:00,38.6,19.5,29.62,SSW,211,6.0,16.0,46,0.00,,,0.00,WUHU216DAVISVP2,2013-03-15 21:00:00,
2013-03-15 17:05:00,38.4,19.3,29.62,SW,216,4.5,16.0,46,0.00,,,0.00,WUHU216DAVISVP2,2013-03-15 21:05:00,
2013-03-15 17:10:00,38.3,19.2,29.63,South,182,10.0,16.0,46,0.00,,,0.00,WUHU216DAVISVP2,2013-03-15 21:10:00,
2013-03-15 17:15:00,38.2,19.1,29.62,WSW,249,12.0,16.0,46,0.00,,,0.00,WUHU216DAVISVP2,2013-03-15 21:15:00,
2013-03-15 17:20:00,38.2,20.1,29.63,WSW,253,12.0,19.0,48,0.00,,,0.00,WUHU216DAVISVP2,2013-03-15 21:20:00,
2013-03-15 17:25:00,37.9,21.3,29.63,SW,215,10.1,21.0,51,0.00,,,0.00,WUHU216DAVISVP2,2013-03-15 21:25:00,
2013-03-15 17:30:00,37.5,21.4,29.63,West,275,15.0,21.0,52,0.00,,,0.00,WUHU216DAVISVP2,2013-03-15 21:30:00,
2013-03-15 17:35:00,37.4,21.3,29.63,WNW,292,11.0,21.0,52,0.00,,,0.00,WUHU216DAVISVP2,2013-03-15 21:35:00,
2013-03-15 17:40:00,37.5,22.4,29.62,West,277,12.0,21.0,54,0.00,,,0.00,WUHU216DAVISVP2,2013-03-15 21:40:00,
2013-03-15 17:45:00,37.4,22.7,29.63,SSW,208,7.1,18.0,55,0.00,,,0.00,WUHU216DAVISVP2,2013-03-15 21:45:00,
2013-03-15 17:50:00,37.2,22.5,29.63,SW,223,4.8,18.0,55,0.00,,,0.00,WUHU216DAVISVP2,2013-03-15 21:50:00,
2013-03-15 18:00:00,36.9,23.1,29.62,West,270,6.0,18.0,57,0.00,,,0.00,WUHU216DAVISVP2,2013-03-15 22:00:00,
2013-03-15 18:04:00,36.8,23.4,29.62,SW,219,5.0,17.0,58,0.00,,,0.00,WUHU216DAVISVP2,2013-03-15 22:04:00,
2013-03-15 18:09:00,36.8,23.9,29.62,WSW,241,4.0,10.0,59,0.00,,,0.00,WUHU216DAVISVP2,2013-03-15 22:09:00,
2013-03-15 18:14:00,36.8,24.2,29.63,SW,221,5.0,10.0,60,0.00,,,0.00,WUHU216DAVISVP2,2013-03-15 22:14:00,
2013-03-15 18:19:00,36.7,24.6,29.62,WNW,282,1.8,7.0,61,0.00,,,0.00,WUHU216DAVISVP2,2013-03-15 22:19:00,
2013-03-15 18:24:00,36.6,24.9,29.62,SSW,205,5.0,11.0,62,0.00,,,0.00,WUHU216DAVISVP2,2013-03-15 22:24:00,
2013-03-15 18:29:00,36.5,25.9,29.62,SSW,208,3.0,11.0,65,0.00,,,0.00,WUHU216DAVISVP2,2013-03-15 22:29:00,
2013-03-15 18:30:00,36.5,25.8,29.62,SW,225,3.0,11.0,65,0.00,,,0.00,WUHU216DAVISVP2,2013-03-15 22:30:00,
2013-03-15 18:34:00,36.4,25.8,29.63,SSW,207,2.4,11.0,65,0.00,,,0.00,WUHU216DAVISVP2,2013-03-15 22:34:00,
2013-03-15 18:39:00,36.3,25.7,29.63,SW,230,2.9,12.0,65,0.00,,,0.00,WUHU216DAVISVP2,2013-03-15 22:39:00,
2013-03-15 18:44:00,36.3,26.0,29.63,WSW,251,3.5,12.0,66,0.00,,,0.00,WUHU216DAVISVP2,2013-03-15 22:44:00,
2013-03-15 18:49:00,36.4,26.2,29.63,WSW,257,2.1,12.0,66,0.00,,,0.00,WUHU216DAVISVP2,2013-03-15 22:49:00,
2013-03-15 18:54:00,36.4,25.8,29.63,WSW,242,2.0,12.0,65,0.00,,,0.00,WUHU216DAVISVP2,2013-03-15 22:54:00,
2013-03-15 18:59:00,36.3,26.0,29.63,WNW,284,3.0,8.0,66,0.00,,,0.00,WUHU216DAVISVP2,2013-03-15 22:59:00,
2013-03-15 19:00:00,36.3,26.0,29.63,WSW,248,3.0,12.0,66,0.00,,,0.00,WUHU216DAVISVP2,2013-03-15 23:00:00,
2013-03-15 19:04:00,36.3,26.1,29.63,WNW,291,2.5,6.0,66,0.00,,,0.00,WUHU216DAVISVP2,2013-03-15 23:04:00,
2013-03-15 19:09:00,36.2,26.3,29.64,SW,236,4.3,7.0,67,0.00,,,0.00,WUHU216DAVISVP2,2013-03-15 23:09:00,
2013-03-15 19:14:00,36.1,27.0,29.64,West,274,9.0,11.0,69,0.00,,,0.00,WUHU216DAVISVP2,2013-03-15 23:14:00,
2013-03-15 19:19:00,36.0,27.2,29.64,WSW,258,3.5,11.0,70,0.00,,,0.00,WUHU216DAVISVP2,2013-03-15 23:19:00,
2013-03-15 19:24:00,35.9,27.4,29.64,West,271,7.0,11.0,71,0.00,,,0.00,WUHU216DAVISVP2,2013-03-15 23:24:00,
2013-03-15 19:29:00,35.8,27.7,29.64,WNW,296,5.0,11.0,72,0.00,,,0.00,WUHU216DAVISVP2,2013-03-15 23:29:00,
2013-03-15 19:30:00,35.8,27.7,29.64,WSW,248,3.0,11.0,72,0.00,,,0.00,WUHU216DAVISVP2,2013-03-15 23:30:00,
2013-03-15 19:34:00,35.6,27.9,29.64,WNW,296,1.0,9.0,73,0.00,,,0.00,WUHU216DAVISVP2,2013-03-15 23:34:00,
2013-03-15 19:39:00,35.4,27.7,29.64,WNW,296,2.2,9.0,73,0.00,,,0.00,WUHU216DAVISVP2,2013-03-15 23:39:00,
2013-03-15 19:44:00,35.3,27.6,29.64,WNW,295,1.8,9.0,73,0.00,,,0.00,WUHU216DAVISVP2,2013-03-15 23:44:00,
2013-03-15 19:49:00,35.2,27.8,29.64,West,269,3.9,9.0,74,0.00,,,0.00,WUHU216DAVISVP2,2013-03-15 23:49:00,
2013-03-15 19:54:00,35.2,27.7,29.64,West,266,3.0,9.0,74,0.00,,,0.00,WUHU216DAVISVP2,2013-03-15 23:54:00,
2013-03-15 19:59:00,35.2,27.8,29.63,West,263,2.5,9.0,74,0.00,,,0.00,WUHU216DAVISVP2,2013-03-15 23:59:00,
2013-03-15 20:00:00,35.2,27.7,29.63,West,270,2.0,9.0,74,0.00,,,0.00,WUHU216DAVISVP2,2013-03-16 00:00:00,
2013-03-15 20:04:00,35.2,28.1,29.64,WSW,249,1.5,9.0,75,0.00,,,0.00,WUHU216DAVISVP2,2013-03-16 00:04:00,
2013-03-15 20:09:00,35.1,28.0,29.64,WSW,248,1.4,6.0,75,0.00,,,0.00,WUHU216DAVISVP2,2013-03-16 00:09:00,
2013-03-15 20:14:00,35.0,27.9,29.64,WSW,239,1.6,8.0,75,0.00,,,0.00,WUHU216DAVISVP2,2013-03-16 00:14:00,
2013-03-15 20:19:00,35.0,28.2,29.64,SW,218,2.6,8.0,76,0.00,,,0.00,WUHU216DAVISVP2,2013-03-16 00:19:00,
2013-03-15 20:24:00,34.9,28.1,29.64,SSW,213,1.3,8.0,76,0.00,,,0.00,WUHU216DAVISVP2,2013-03-16 00:24:00,
2013-03-15 20:29:00,34.9,28.1,29.64,SW,217,3.0,7.0,76,0.00,,,0.00,WUHU216DAVISVP2,2013-03-16 00:29:00,
2013-03-15 20:30:00,34.9,28.1,29.64,WSW,248,1.0,8.0,76,0.00,,,0.00,WUHU216DAVISVP2,2013-03-16 00:30:00,
2013-03-15 20:34:00,34.9,28.1,29.63,SW,218,2.0,7.0,76,0.00,,,0.00,WUHU216DAVISVP2,2013-03-16 00:34:00,
2013-03-15 20:39:00,34.8,28.0,29.63,SW,217,1.7,6.0,76,0.00,,,0.00,WUHU216DAVISVP2,2013-03-16 00:39:00,
2013-03-15 20:44:00,34.6,27.8,29.63,SW,217,1.0,6.0,76,0.00,,,0.00,WUHU216DAVISVP2,2013-03-16 00:44:00,
2013-03-15 20:49:00,34.5,28.0,29.63,SW,217,0.0,6.0,77,0.00,,,0.00,WUHU216DAVISVP2,2013-03-16 00:49:00,
2013-03-15 20:54:00,34.3,27.9,29.63,SSW,202,2.6,4.0,77,0.00,,,0.00,WUHU216DAVISVP2,2013-03-16 00:54:00,
2013-03-15 20:59:00,34.1,27.7,29.63,SW,227,3.2,7.0,77,0.00,,,0.00,WUHU216DAVISVP2,2013-03-16 00:59:00,
2013-03-15 21:00:00,34.1,27.6,29.63,SW,225,1.0,7.0,77,0.00,,,0.00,WUHU216DAVISVP2,2013-03-16 01:00:00,
2013-03-15 21:04:00,34.2,27.8,29.64,WSW,247,2.7,8.0,77,0.00,,,0.00,WUHU216DAVISVP2,2013-03-16 01:04:00,
2013-03-15 21:09:00,34.3,28.2,29.64,SW,221,2.0,13.0,78,0.00,,,0.00,WUHU216DAVISVP2,2013-03-16 01:09:00,
2013-03-15 21:14:00,34.4,28.9,29.64,West,278,5.0,13.0,80,0.00,,,0.00,WUHU216DAVISVP2,2013-03-16 01:14:00,
2013-03-15 21:19:00,34.2,29.3,29.64,West,280,2.0,13.0,82,0.00,,,0.00,WUHU216DAVISVP2,2013-03-16 01:19:00,
2013-03-15 21:24:00,34.0,29.4,29.63,West,261,2.0,9.0,83,0.00,,,0.00,WUHU216DAVISVP2,2013-03-16 01:24:00,
2013-03-15 21:29:00,33.8,29.2,29.63,West,261,1.0,8.0,83,0.00,,,0.00,WUHU216DAVISVP2,2013-03-16 01:29:00,
2013-03-15 21:30:00,33.8,29.2,29.63,West,270,2.0,13.0,83,0.00,,,0.00,WUHU216DAVISVP2,2013-03-16 01:30:00,
2013-03-15 21:34:00,33.5,28.9,29.63,West,261,0.0,7.0,83,0.00,,,0.00,WUHU216DAVISVP2,2013-03-16 01:34:00,
2013-03-15 21:39:00,33.4,28.8,29.63,West,261,1.5,5.0,83,0.00,,,0.00,WUHU216DAVISVP2,2013-03-16 01:39:00,
2013-03-15 21:44:00,33.4,28.8,29.63,West,261,1.0,3.0,83,0.00,,,0.00,WUHU216DAVISVP2,2013-03-16 01:44:00,
2013-03-15 21:49:00,33.4,28.8,29.63,West,259,1.0,5.0,83,0.00,,,0.00,WUHU216DAVISVP2,2013-03-16 01:49:00,
2013-03-15 21:54:00,33.4,28.5,29.63,West,259,0.0,5.0,82,0.00,,,0.00,WUHU216DAVISVP2,2013-03-16 01:54:00,
2013-03-15 21:59:00,33.3,28.4,29.63,WSW,253,2.1,5.0,82,0.00,,,0.00,WUHU216DAVISVP2,2013-03-16 01:59:00,
2013-03-15 22:00:00,33.3,28.4,29.63,West,270,0.0,5.0,82,0.00,,,0.00,WUHU216DAVISVP2,2013-03-16 02:00:00,
2013-03-15 22:04:00,33.3,28.1,29.63,SW,220,4.0,6.0,81,0.00,,,0.00,WUHU216DAVISVP2,2013-03-16 02:04:00,
2013-03-15 22:09:00,33.2,28.0,29.63,SW,219,3.0,7.0,81,0.00,,,0.00,WUHU216DAVISVP2,2013-03-16 02:09:00,
2013-03-15 22:14:00,33.2,28.0,29.63,SW,218,1.9,7.0,81,0.00,,,0.00,WUHU216DAVISVP2,2013-03-16 02:14:00,
2013-03-15 22:19:00,33.2,28.0,29.63,SW,218,2.0,7.0,81,0.00,,,0.00,WUHU216DAVISVP2,2013-03-16 02:19:00,
2013-03-15 22:24:00,33.3,28.1,29.63,SW,218,2.1,7.0,81,0.00,,,0.00,WUHU216DAVISVP2,2013-03-16 02:24:00,
2013-03-15 22:29:00,33.4,27.9,29.63,WSW,240,2.7,7.0,80,0.00,,,0.00,WUHU216DAVISVP2,2013-03-16 02:29:00,
2013-03-15 22:30:00,33.4,27.9,29.63,SW,225,1.0,7.0,80,0.00,,,0.00,WUHU216DAVISVP2,2013-03-16 02:30:00,
2013-03-15 22:34:00,33.6,28.1,29.63,WSW,240,2.0,6.0,80,0.00,,,0.00,WUHU216DAVISVP2,2013-03-16 02:34:00,
2013-03-15 22:39:00,33.7,27.9,29.63,WSW,252,4.8,10.0,79,0.00,,,0.00,WUHU216DAVISVP2,2013-03-16 02:39:00,
2013-03-15 22:44:00,33.8,28.0,29.63,SW,225,2.2,10.0,79,0.00,,,0.00,WUHU216DAVISVP2,2013-03-16 02:44:00,
2013-03-15 22:49:00,33.8,27.7,29.63,WSW,252,2.1,10.0,78,0.00,,,0.00,WUHU216DAVISVP2,2013-03-16 02:49:00,
2013-03-15 22:54:00,33.7,27.6,29.64,WSW,252,0.0,10.0,78,0.00,,,0.00,WUHU216DAVISVP2,2013-03-16 02:54:00,
2013-03-15 22:59:00,33.6,27.5,29.63,WNW,284,3.0,8.0,78,0.00,,,0.00,WUHU216DAVISVP2,2013-03-16 02:59:00,
2013-03-15 23:00:00,33.6,27.5,29.63,WSW,248,2.0,10.0,78,0.00,,,0.00,WUHU216DAVISVP2,2013-03-16 03:00:00,
2013-03-15 23:04:00,33.5,27.4,29.63,West,261,2.2,8.0,78,0.00,,,0.00,WUHU216DAVISVP2,2013-03-16 03:04:00,
2013-03-15 23:09:00,33.5,27.4,29.63,WNW,283,5.0,8.0,78,0.00,,,0.00,WUHU216DAVISVP2,2013-03-16 03:09:00,
2013-03-15 23:14:00,33.5,27.1,29.63,WSW,246,4.6,8.0,77,0.00,,,0.00,WUHU216DAVISVP2,2013-03-16 03:14:00,
2013-03-15 23:19:00,33.6,27.2,29.63,WNW,291,6.0,8.0,77,0.00,,,0.00,WUHU216DAVISVP2,2013-03-16 03:19:00,
2013-03-15 23:24:00,33.8,27.1,29.64,West,277,7.0,10.0,76,0.00,,,0.00,WUHU216DAVISVP2,2013-03-16 03:24:00,
2013-03-15 23:29:00,33.9,26.8,29.63,WSW,248,11.0,12.0,75,0.00,,,0.00,WUHU216DAVISVP2,2013-03-16 03:29:00,
2013-03-15 23:30:00,34.0,26.9,29.63,West,270,4.0,12.0,75,0.00,,,0.00,WUHU216DAVISVP2,2013-03-16 03:30:00,
2013-03-15 23:34:00,34.1,27.0,29.64,WNW,286,11.0,13.0,75,0.00,,,0.00,WUHU216DAVISVP2,2013-03-16 03:34:00,
2013-03-15 23:39:00,34.1,26.7,29.65,WNW,292,5.0,13.0,74,0.00,,,0.00,WUHU216DAVISVP2,2013-03-16 03:39:00,
2013-03-15 23:44:00,33.8,26.4,29.65,WNW,295,6.4,13.0,74,0.00,,,0.00,WUHU216DAVISVP2,2013-03-16 03:44:00,
2013-03-15 23:49:00,34.0,26.6,29.65,WNW,298,12.0,16.0,74,0.00,,,0.00,WUHU216DAVISVP2,2013-03-16 03:49:00,
2013-03-15 23:54:00,34.0,26.9,29.66,NW,310,7.0,16.0,75,0.00,,,0.00,WUHU216DAVISVP2,2013-03-16 03:54:00,
2013-03-15 23:59:00,33.9,26.8,29.66,WNW,301,7.8,16.0,75,0.00,,,0.00,WUHU216DAVISVP2,2013-03-16 03:59:00,